{"data":{"norad_id":40555,"intl_designator":"2015-020D","name":"COSMOS 2504","alt_names":[],"object_type":"PAYLOAD","status":"ACTIVE","operator":null,"country":"CIS","launch_date":"2015-03-31","launch_site_code":"PLMSC","launch_vehicle":null,"mission":null,"orbit_class":"UNKNOWN","rcs_meters":0.236,"size_class":null,"mass_kg":null,"dimensions":null,"purposes":[],"wikipedia_slug":null,"has_3d_model":false,"image_url":null,"decayed_at":null,"tle_current":{"epoch":"2026-05-25T04:24:10.491264Z","epoch_age_seconds":49351,"freshness":"FRESH","line1":"1 40555U 15020D   26145.18345476  .00000180  00000+0  62170-4 0  9991","line2":"2 40555  82.5176 249.0744 0607492 336.9689  20.5232 13.61376242547063","mean_motion":13.61376242,"eccentricity":0.0607492,"inclination_deg":82.5176,"raan_deg":249.0744,"arg_perigee_deg":336.9689,"mean_anomaly_deg":20.5232,"bstar":6.217e-5,"rev_number":54706,"period_min":105.77531438954,"perigee_km":580.61410787123,"apogee_km":1480.7753061418,"semimajor_km":7408.8317070065,"source":"CELESTRAK","updated_at":"2026-05-25T13:37:55.541881Z"}}}